Weather History for Imperial, NE

Change the Weather History Date:

Wednesday, July 3, 2013

  Actual Average Record
Temperature  
Mean Temperature 70 °F 75 °F  
Max Temperature 89 °F 90 °F 106 °F (1934)
Min Temperature 51 °F 60 °F 45 °F (1924)
Degree Days  
Heating Degree Days 0 0  
Month to date heating degree days 0 0  
Since 1 June heating degree days 24 34  
Cooling Degree Days 5 10  
Month to date cooling degree days 9 30  
Year to date cooling degree days 308 258  
Since 1 June cooling degree days 240 214  
Growing Degree Days 20 (Base 50)    
Moisture  
Dew Point 44 °F    
Average Humidity 48    
Maximum Humidity 77    
Minimum Humidity 18    
Precipitation  
Precipitation 0.00 in 0.11 in 1.20 in (1926)
Sea Level Pressure  
Sea Level Pressure 29.94 in    
Wind  
Wind Speed 8 mph (SSE)    
Max Wind Speed 17 mph    
Max Gust Speed 30 mph    
Visibility 10 miles    
Events      
T = Trace of Precipitation, MM = Missing Value Source: NWS Daily Summary

Daily Weather History Graph

Daily Weather History Graph

Search for Another Location

Airport:

Trip Planner

Search our weather history database for the weather conditions in past years. The results will help you decide how hot, cold, wet, or windy it might be!

Date:

Astronomy

Jul. 03, 2013 Rise Set
Actual Time 5:20 AM MDT 8:20 PM MDT
Civil Twilight 4:47 AM MDT 8:53 PM MDT
Nautical Twilight 4:06 AM MDT 9:35 PM MDT
Astronomical Twilight 3:17 AM MDT 10:23 PM MDT
Moon 2:00 AM MDT (7/3) 4:32 PM MDT (7/3)
Length of Visible Light 16h 05m
Length of Day
14h 59m
Waning Crescent, 18% of the Moon is Illuminated
Jul 3
Waning Crescent
Jul 8
New
Jul 15
First Quarter
Jul 22
Full
Jul 29
Last Quarter

Hourly Weather History & Observations

Time (MDT) Temp. Dew Point Humidity Pressure Visibility Wind Dir Wind Speed Gust Speed Precip Events Conditions
12:53 AM 57.9 °F 45.0 °F 62% 30.08 in 10.0 mi SE 8.1 mph - N/A   Clear
1:53 AM 55.9 °F 46.0 °F 69% 30.06 in 10.0 mi SE 5.8 mph - N/A   Scattered Clouds
2:53 AM 54.0 °F 46.0 °F 75% 30.04 in 10.0 mi SE 5.8 mph - N/A   Clear
3:53 AM 53.1 °F 45.0 °F 74% 30.03 in 10.0 mi SE 5.8 mph - N/A   Clear
4:53 AM 52.0 °F 45.0 °F 77% 30.03 in 10.0 mi SSE 4.6 mph - N/A   Clear
5:53 AM 52.0 °F 45.0 °F 77% 30.03 in 10.0 mi SE 3.5 mph - N/A   Clear
6:53 AM 59.0 °F 46.0 °F 62% 30.01 in 10.0 mi SE 4.6 mph - N/A   Clear
7:53 AM 66.9 °F 43.0 °F 42% 30.02 in 10.0 mi SSW 5.8 mph - N/A   Clear
8:53 AM 72.0 °F 45.0 °F 38% 30.01 in 10.0 mi SSW 9.2 mph - N/A   Clear
9:53 AM 77.0 °F 46.0 °F 33% 29.99 in 10.0 mi South 9.2 mph - N/A   Clear
10:53 AM 82.0 °F 46.0 °F 28% 29.96 in 10.0 mi SSE 8.1 mph 16.1 mph N/A   Clear
11:53 AM 84.9 °F 45.0 °F 25% 29.94 in 10.0 mi South 8.1 mph - N/A   Partly Cloudy
12:53 PM 84.9 °F 43.0 °F 23% 29.93 in 10.0 mi SSW 4.6 mph 19.6 mph N/A   Clear
1:53 PM 86.0 °F 41.0 °F 20% 29.91 in 10.0 mi SSW 6.9 mph - N/A   Partly Cloudy
2:53 PM 88.0 °F 42.1 °F 20% 29.89 in 10.0 mi South 8.1 mph 29.9 mph N/A   Clear
3:53 PM 88.0 °F 39.9 °F 18% 29.87 in 10.0 mi SSW 8.1 mph 18.4 mph N/A   Mostly Cloudy
4:53 PM 87.1 °F 39.9 °F 19% 29.85 in 10.0 mi SE 10.4 mph 16.1 mph N/A   Partly Cloudy
5:53 PM 87.1 °F 39.9 °F 19% 29.83 in 10.0 mi SSE 9.2 mph 16.1 mph N/A   Clear
6:53 PM 84.0 °F 42.1 °F 23% 29.83 in 10.0 mi SE 10.4 mph - N/A   Clear
7:53 PM 77.0 °F 43.0 °F 30% 29.84 in 10.0 mi SE 8.1 mph - N/A   Clear
8:53 PM 69.1 °F 44.1 °F 40% 29.85 in 10.0 mi SSE 8.1 mph - N/A   Clear
9:53 PM 66.9 °F 42.1 °F 40% 29.86 in 10.0 mi SE 9.2 mph - N/A   Clear
10:53 PM 64.0 °F 43.0 °F 46% 29.86 in 10.0 mi SSE 8.1 mph - N/A   Clear
11:53 PM 63.0 °F 44.1 °F 50% 29.86 in 10.0 mi SE 9.2 mph - N/A   Clear